map of CMN home
CMN - Airport
Location
City:  Casablanca, Casablanca (Dar el Beda), Morocco
Name:Mohammed V International Airport
ICAO:GMMN
IATA:CMN

Details
Type:Airport (Aerodrome, Airfield)
Use:Public/Civil, International (customs port of entry)
Latitude:3322'03"N (33.367467)
Longitude:735'24"W (-7.589966)
Datum:WGS 1984
Elevation:656 ft (200 m)
Variation:1.85W (WMM2015 magnetic declination)
0.11 annual change
Runways:2
Longest:12205 × 148 ft (3720 × 45 m), paved

Time
Time Zone:UTC+0 (DST+1)
Local Time:

Weather
METAR:GMMN 240830Z 07004KT 040V120 9999 FEW016 SCT100 23/20 Q1015 NOSIG
TAF:GMMN 240500Z 2406/2512 02004KT 5000 SCT016
TEMPO 2406/2408 2000 BR BKN010
BECMG 2409/2412 36010KT CAVOK
BECMG 2418/2422 VRB02KT 8000 SCT016
BECMG 2508/2511 36006KT CAVOK

Related Locations
Nearby:
Farthest:KAT: 12304 mi / 19802 km
Kaitaia, NTL, NZ

Find:

   beyond  
but within

Other Information
Maps:
NOTAMs:
Links:
Sources:

  
flag of Morocco   

Sectional Chart

Flight Planning
at skyvector.com

Satellite Image

Google Maps Satellite view

 

Copyright © 2004-2017 Karl L. Swartz. All rights reserved.
The Great Circle Mapper name and logo are trademarks of the Great Circle Mapper.
All other trademarks mentioned herein belong to their respective owners.
Please see credits for attibutions and further copyright information.

  Follow gcmap on Facebook Follow gcmap on Twitter Follow gcmap on Google+ GCmap on LinkedIn

hCard Microformat

Geo Microformat